#timestamp,LO_Frequency,Hit,StdDev 
1586894415.2,286047001.7,N
1586894435.1,286047002.1,N
1586894436.0,286047002.1,N
1586894455.8,286047002.2,N
1586894475.7,286047002.4,N
1586894495.5,286047000.3,N
1586894515.3,286046999.9,N
1586894535.2,286047002.7,N
1586894555.0,286047002.2,N
1586894555.9,286047002.2,N
1586894575.7,286047001.6,N
1586894595.6,286047002.2,N
1586894615.4,286047003.8,N
1586894635.3,286047001.3,N
1586894655.1,286046999.8,N
1586894675.8,286047002.2,N
1586894695.7,286047004.2,N
1586894715.5,286047001.9,N
1586894735.4,286047003.8,N
1586894755.2,286047001.8,N
1586894775.0,286047004.2,N
1586894775.9,286047004.2,N
1586894795.8,286047003.2,N
1586894815.6,286047003.6,N
1586894835.4,286047003.5,N
1586894855.3,286047002.7,N
1586894875.1,286047000.0,N
1586894895.9,286047000.2,N
1586894915.7,286047000.6,N
1586894935.5,286047001.2,N
1586894955.4,286046998.3,N
1586894975.2,286047001.0,N
1586894995.1,286047002.6,N
1586894996.0,286047002.6,N
1586895015.8,286047001.5,N
1586895035.6,286047000.4,N
1586895055.5,286046998.1,N
1586895075.3,286047000.8,N
1586895095.1,286047001.0,N
1586895115.9,286047000.8,N
1586895135.7,286046998.5,N
1586895155.6,286046998.5,N
1586895175.4,286046998.5,N
1586895195.2,286047000.8,N
1586895215.1,286046998.4,N
1586895216.0,286046998.4,N
1586895235.8,286047001.1,N
1586895255.7,286046998.6,N
1586895275.5,286046998.8,N
1586895295.3,286046998.1,N
1586895315.2,286046999.6,N
1586895335.0,286046997.1,N
1586895335.9,286046997.1,N
1586895355.8,286046999.6,N
1586895375.6,286046997.7,N
1586895395.4,286046998.8,N
1586895415.3,286046996.7,N
1586895435.1,286046997.1,N
1586895455.9,286046996.7,N
1586895475.7,286046997.4,N
1586895495.5,286046997.5,N
1586895515.4,286046997.9,N
1586895535.2,286046997.9,N
1586895555.0,286046995.7,N
1586895555.9,286046995.7,N
1586895575.8,286046994.9,Y
1586895595.6,286046997.3,P
1586895615.5,286046999.6,N
1586895635.3,286046997.1,P
1586895655.1,286046997.3,N
1586895675.9,286046995.2,Y
1586895695.7,286046999.6,P
1586895715.6,286046997.2,P
1586895735.4,286046997.9,N
1586895755.2,286046997.9,N
1586895775.1,286046995.2,Y
1586895776.0,286046995.2,P
1586895795.8,286046999.4,N
1586895815.7,286046998.3,N
1586895835.5,286046998.6,N
1586895855.3,286046998.1,N
1586895875.2,286047001.1,N
1586895895.0,286047000.4,N
1586895895.9,286047000.4,N
1586895915.7,286046998.8,N
1586895935.6,286046998.7,N
1586895955.4,286046996.7,N
1586895975.3,286046998.9,N
1586895995.1,286046997.1,N
1586896015.8,286046996.8,N
1586896035.7,286046998.7,N
1586896055.5,286046998.3,N
1586896075.4,286046998.7,N
1586896095.2,286046999.2,N
1586896115.0,286046997.2,N
1586896115.9,286046997.2,N
1586896135.8,286046999.6,N
1586896155.6,286046998.7,N
1586896175.5,286046999.1,N
1586896195.3,286046997.1,N
1586896215.1,286046997.8,N
1586896235.9,286046999.6,N
1586896255.7,286046999.6,N
1586896275.5,286046998.4,N
1586896295.4,286046999.3,N
1586896315.2,286046998.9,N
1586896335.1,286047001.2,N
1586896336.0,286047001.2,N
1586896355.8,286046999.7,N
1586896375.6,286047000.6,N
1586896395.5,286047011.9,Y
1586896415.3,286047004.1,P
1586896435.2,286047003.8,N
1586896455.9,286047003.9,N
1586896475.7,286047001.3,N
1586896495.6,286047003.2,N
1586896515.4,286047001.4,N
1586896535.2,286046999.7,N
1586896555.1,286047001.8,N
1586896556.0,286047001.8,N
1586896575.8,286047002.0,N
1586896595.7,286047004.3,N
1586896615.5,286047005.9,Y
1586896635.3,286047000.8,P
1586896655.2,286047000.9,N
1586896675.0,286047000.4,N
1586896675.9,286047000.4,N
1586896695.8,286047002.0,Y
1586896715.6,286047001.9,P
1586896735.4,286047000.1,N
1586896755.3,286047000.9,N
1586896775.1,286046999.7,N
1586896795.8,286047000.4,N
1586896815.7,286047000.3,N
1586896835.5,286047000.2,N
1586896855.4,286047000.2,N
1586896875.2,286047001.8,N
1586896895.0,286047002.0,N
1586896895.9,286047002.0,N
1586896915.8,286047001.6,N
1586896935.6,286047004.4,Y
1586896955.5,286046999.9,P
1586896975.3,286047002.1,P
1586896995.1,286047001.3,N
1586897015.9,286047001.9,N
1586897035.7,286047002.3,N
1586897055.6,286047000.9,N
1586897075.4,286047001.7,N
1586897095.2,286047004.1,Y
1586897115.1,286047000.9,P
1586897116.0,286047000.9,P
1586897135.8,286046998.6,P
1586897155.7,286046996.5,Y
1586897175.5,286046999.1,P
1586897195.3,286046998.2,N
1586897215.2,286047002.7,N
1586897235.0,286047001.8,N
1586897235.9,286047001.8,N
1586897255.7,286047002.5,N
1586897275.6,286047002.6,N
1586897295.4,286047002.0,N
1586897315.3,286047003.9,N
1586897335.1,286047002.9,N
1586897355.8,286047003.7,N
1586897375.7,286047002.4,N
1586897395.5,286047002.4,N
1586897415.4,286047002.0,N
1586897435.2,286046999.7,N
1586897455.0,286047001.6,N
1586897455.9,286047001.6,N
1586897475.8,286047001.5,N
1586897495.6,286047001.5,N
1586897515.4,286047002.0,N
1586897535.3,286047002.0,N
1586897555.1,286047003.6,N
1586897575.9,286047002.9,N
1586897595.7,286047004.1,Y
1586897615.5,286047000.9,P
1586897635.4,286047001.4,N
1586897655.2,286047000.7,N
1586897675.1,286046998.1,Y
1586897676.0,286046998.1,P
1586897695.8,286047000.4,N
1586897715.6,286046998.2,N
1586897735.5,286047000.8,N
1586897755.3,286047004.4,Y
1586897775.2,286046999.7,P
1586897795.9,286047001.1,P
1586897815.7,286046998.8,N
1586897835.6,286046998.3,N
1586897855.4,286046999.3,N
1586897875.3,286046999.0,N
1586897895.1,286046998.5,N
1586897896.0,286046998.5,N
1586897915.8,286047000.5,N
1586897935.7,286046998.2,N
1586897955.5,286047002.7,N
1586897975.3,286047000.9,N
1586897995.2,286046999.8,N
